Voltar ao catálogo

COSMOS 1275 DEB

AtivoPO
NORAD 12767·DEBRIS·🇷🇺 Russia

Lançado Jun 4, 1981 de Plesetsk Cosmodrome

Loading…

Próximas Passagens (próximas 24 horas)

TLE

AtualizadoSource: Space-Track

Época: Sep 14, 2026, 04:05 UTC

1 12767U 81053DL  26257.17032615  .00000722  00000-0  38397-3 0  9991
2 12767  82.9562  46.8262 0046735 214.0915 269.3745 14.11683906303957

Acompanhe COSMOS 1275 DEB em tempo real com AllMySat

Download on the App Store